Regional Weather Roundup
Issued by NWS

Home | Current Version | Previous Version | Text Only | Print | Product List | Glossary On
Versions: 1 2 3 4 5 6 7 8 9 10 11 12 13 14 15 16 17 18 19 20 21 22 23 24 25 26 27 28 29 30 31 32 33 34 35 36 37 38 39 40 41 42 43 44 45 46 47 48 49 50
000
ASUS43 KDTX 270901
RWRMI
MICHIGAN HOURLY REGIONAL WEATHER ROUNDUP
NATIONAL WEATHER SERVICE DETROIT/PONTIAC MI
500 AM EDT TUE SEP 27 2016

NOTE: "FAIR" INDICATES FEW OR NO CLOUDS BELOW 12,000 FEET WITH NO
SIGNIFICANT WEATHER AND/OR OBSTRUCTION TO VISIBILITY.

MIZ047>049-052>055-059>063-066>070-074>076-081>083-271000-
SOUTHEAST LOWER MICHIGAN

CITY           SKY/WX    TMP DP  RH WIND       PRES   REMARKS
ADRIAN         CLEAR     46  41  82 SW7       29.88S
ALMA           PTCLDY    49  46  89 SW7       29.75F
ANN ARBOR      CLEAR     49  40  71 S9        29.83F
BAD AXE        CLEAR     48  42  81 SW6       29.75F
CARO           PTCLDY    43  42  94 SW3       29.75F
DETROIT CITY   CLEAR     55  40  56 SW10      29.83F
DETROIT        CLEAR     51  41  68 S10       29.85F
FLINT          PTCLDY    50  41  71 S12       29.79
GROSSE ILE     CLEAR     54  40  57 SW10G17   29.84F
HILLSDALE      CLEAR     50  37  62 SW7       29.85F
HOWELL         CLEAR     50  40  68 SW6       29.80F

CITY           SKY/WX    TMP DP  RH WIND       PRES   REMARKS
JACKSON        CLEAR     52  39  61 SW9       29.83F
LAMBERTVILLE   CLEAR     53  40  61 SW6       29.87F
LANSING        CLEAR     51  40  65 S13       29.79F
LAPEER         FAIR      50  41  72 SW8       29.79F
MASON          CLEAR     50  40  70 CALM      29.80F
MONROE         CLEAR     51  40  66 SW7       29.85F
MT. CLEMENS    PTCLDY    53  41  62 SW8       29.80F
PONTIAC        CLEAR     52  40  63 SW8       29.80F
PORT HURON     CLEAR     50  41  71 SW3       29.81F
TRI CITIES     PTCLDY    51  44  77 S8        29.75F
MIDLAND        FAIR      48  43  81 S6        29.73F
TROY           CLEAR     52  39  61 SW6       29.84F
SAGINAW HB     CLEAR     50  43  76 S6        29.75F
$$
MIZ043>046-050>051-056>058-064>065-071>073-077>080-271000-
SOUTHWEST LOWER MICHIGAN

CITY           SKY/WX    TMP DP  RH WIND       PRES   REMARKS
BATTLE CREEK   CLEAR     50  42  74 S13       29.82F
BENTON HARBOR  CLEAR     64  39  39 W20G28    29.81F
BIG RAPIDS     PTCLDY    50  43  77 SW5       29.71F
COLDWATER      CLEAR     51  37  57 SW9       29.85F
FREMONT        FAIR      55  37  50 SW6       29.73F
HOLLAND        CLEAR     63  41  44 W14G26    29.77F
GRAND RAPIDS   PTCLDY    53  41  63 S14       29.77F
IONIA          MOCLDY    51  40  65 SW10      29.76F
KALAMAZOO      CLEAR     52  39  61 SW12      29.82F
LUDINGTON      CLOUDY    59  44  56 W13G18    29.69F
MARSHALL       CLEAR     51  39  63 SW8       29.82F
MOUNT PLEASANT PTCLDY    50  42  72 S5        29.72F
MUSKEGON       PTCLDY    62  41  46 W17G25    29.74F
SOUTH HAVEN    CLEAR     65  44  46 W16G25    29.79F
$$
MIZ016>042-271000-
NORTHERN LOWER MICHIGAN

CITY           SKY/WX    TMP DP  RH WIND       PRES   REMARKS
ALPENA         CLOUDY    53  42  66 S9        29.64F
BEAVER ISLAND  CLOUDY    55  49  81 W20G28    29.55F
BELLAIRE       CLOUDY    53  50  89 CALM      29.62F
CADILLAC       PTCLDY    49  42  75 SW7       29.67F
CHARLEVOIX     CLOUDY    57  47  70 W17G28    29.61F
FRANKFORT      CLOUDY    58  44  58 W14G24    29.64F
GAYLORD        MOCLDY    50  45  83 SW9       29.62F
GRAYLING       CLOUDY    51  44  75 S3        29.65F
HARBOR SPRINGS LGT RAIN  53  51  95 S10       29.57F
HOUGHTON LAKE  PTCLDY    52  43  71 SW14G22   29.68F
MANISTEE       CLOUDY    59  44  57 W20G28    29.66F
OSCODA         CLOUDY    50  42  75 SW10      29.69F
PELLSTON       LGT RAIN  52  49  89 S5        29.57F
ROGERS CITY    DRIZZLE   52  47  83 S6        29.62F
TRAVERSE CITY  CLOUDY    55  46  71 S5        29.62F
$$
MIZ007>008-015-271000-
EASTERN UPPER MICHIGAN

CITY           SKY/WX    TMP DP  RH WIND       PRES   REMARKS
KINROSS        CLOUDY    50  47  89 VRB5      29.53F
MACKINAC ISLAN LGT RAIN  54  48  82 SW15G26   29.54F
NEWBERRY       CLOUDY    49  48  97 SW10      29.52S
S. S. MARIE    CLOUDY    51  47  86 SW10      29.52F
MUNISING         N/A     52  48  86 VRB7      29.50F
$$
MIZ004>006-011>014-085-271000-
CENTRAL UPPER MICHIGAN

CITY           SKY/WX    TMP DP  RH WIND       PRES   REMARKS
MANISTIQUE     CLOUDY    53  46  78 SW8G20    29.54S
ESCANABA       CLOUDY    53  46  77 SW10      29.56F
MENOMINEE      CLOUDY    54  43  66 W7        29.62F
SAWYER-GWINN   CLOUDY    49  46  90 W10       29.52S
$$
MIZ001>003-009>011-084-271000-
WESTERN UPPER MICHIGAN

CITY           SKY/WX    TMP DP  RH WIND       PRES   REMARKS
IRON MOUNTAIN  CLOUDY    51  44  77 W10       29.56F
HOUGHTON       LGT RAIN  51  47  86 W21G26    29.46F FOG
COPPER HARBOR    N/A     52  49  89 N13G23    29.43S
IRONWOOD       LGT RAIN  48  47  96 W17G25    29.60F
$$

ABBREVIATIONS USED IN REMARKS
   TC - TEMPERATURE IN CELSIUS
  WCI - WIND CHILL INDEX
   HX - HEAT INDEX
  VSB - VISIBILITY





USA.gov is the U.S. government's official web portal to all federal, state and local government web resources and services.